• Em Portugal
  • Lista de países
  • Para 7 dias
  • Temperatura da água
  • Mapas de satélite
  • Mapa do tempo
  • Widgets de tempo
  • user-avatar
    Iniciar Sessão

    Previsão horária em Czosnowo

    Hoje, 19 Agosto, Domingo

    Tempo Temperatura Precipitação Vento Pressão Humidade
    00:00 +18°C° 0 mm 1 m/s 752 mmHg 75%
    01:00 +18°C° 0 mm 1 m/s 752 mmHg 80%
    02:00 +18°C° 0 mm 1 m/s 752 mmHg 82%
    03:00 +18°C° 0 mm 1 m/s 752 mmHg 85%
    04:00 +16°C° 0 mm 1 m/s 752 mmHg 87%
    05:00 +18°C° 0 mm 2 m/s 752 mmHg 82%
    06:00 +19°C° 0 mm 2 m/s 752 mmHg 77%
    07:00 +20°C° 0 mm 2 m/s 752 mmHg 72%
    08:00 +23°C° 0 mm 2 m/s 752 mmHg 63%
    09:00 +24°C° 0 mm 3 m/s 752 mmHg 54%
    10:00 +26°C° 0 mm 3 m/s 752 mmHg 45%
    11:00 +26°C° 0 mm 3 m/s 752 mmHg 44%
    12:00 +27°C° 0 mm 3 m/s 752 mmHg 42%
    13:00 +28°C° 0 mm 3 m/s 752 mmHg 42%
    14:00 +28°C° 0 mm 3 m/s 752 mmHg 42%
    15:00 +28°C° 0 mm 2 m/s 751 mmHg 43%
    16:00 +28°C° 0 mm 2 m/s 751 mmHg 44%
    17:00 +26°C° 0 mm 2 m/s 751 mmHg 50%
    18:00 +24°C° 0 mm 1 m/s 751 mmHg 56%
    19:00 +23°C° 0 mm 1 m/s 750 mmHg 62%
    20:00 +22°C° 0 mm 1 m/s 750 mmHg 65%
    21:00 +21°C° 0 mm 1 m/s 750 mmHg 67%
    22:00 +21°C° 0 mm 1 m/s 750 mmHg 69%
    23:00 +20°C° 0 mm 1 m/s 749 mmHg 68%

    Amanhã, 20 Agosto, Segunda-feira

    Tempo Temperatura Precipitação Vento Pressão Humidade
    00:00 +19°C° 0 mm 2 m/s 749 mmHg 67%
    01:00 +19°C° 0 mm 2 m/s 749 mmHg 65%
    02:00 +19°C° 0 mm 2 m/s 748 mmHg 64%
    03:00 +19°C° 0 mm 2 m/s 748 mmHg 63%
    04:00 +19°C° 0 mm 2 m/s 748 mmHg 62%
    05:00 +19°C° 0 mm 3 m/s 748 mmHg 62%
    06:00 +20°C° 0 mm 3 m/s 748 mmHg 62%
    07:00 +21°C° 0 mm 4 m/s 748 mmHg 62%
    08:00 +22°C° 0 mm 4 m/s 748 mmHg 60%
    09:00 +23°C° 0 mm 5 m/s 748 mmHg 59%
    10:00 +26°C° 0 mm 5 m/s 748 mmHg 58%
    11:00 +25°C° 0,1 mm 5 m/s 748 mmHg 59%
    12:00 +25°C° 0,1 mm 5 m/s 748 mmHg 61%
    13:00 +24°C° 0,1 mm 6 m/s 747 mmHg 63%
    14:00 +23°C° 0,1 mm 5 m/s 747 mmHg 66%
    15:00 +22°C° 0,1 mm 5 m/s 747 mmHg 70%
    16:00 +22°C° 0,1 mm 5 m/s 747 mmHg 73%
    17:00 +21°C° 0,1 mm 5 m/s 747 mmHg 76%
    18:00 +20°C° 0,1 mm 4 m/s 748 mmHg 78%
    19:00 +20°C° 0,1 mm 4 m/s 748 mmHg 81%
    20:00 +19°C° 0 mm 4 m/s 748 mmHg 81%
    21:00 +18°C° 0 mm 4 m/s 748 mmHg 81%
    22:00 +17°C° 0 mm 4 m/s 748 mmHg 81%
    23:00 +17°C° 0 mm 4 m/s 748 mmHg 80%

    Depois de amanhã, 21 Agosto, Terça-feira

    Tempo Temperatura Precipitação Vento Pressão Humidade
    00:00 +15°C° 0 mm 4 m/s 749 mmHg 79%
    01:00 +15°C° 0 mm 4 m/s 749 mmHg 78%
    02:00 +14°C° 0 mm 3 m/s 749 mmHg 79%
    03:00 +14°C° 0 mm 3 m/s 749 mmHg 80%
    04:00 +13°C° 0 mm 3 m/s 750 mmHg 81%
    05:00 +14°C° 0 mm 4 m/s 750 mmHg 77%
    06:00 +15°C° 0 mm 4 m/s 751 mmHg 73%
    07:00 +17°C° 0 mm 4 m/s 751 mmHg 70%
    08:00 +19°C° 0 mm 4 m/s 752 mmHg 63%
    09:00 +20°C° 0 mm 4 m/s 752 mmHg 57%
    10:00 +21°C° 0 mm 4 m/s 752 mmHg 51%
    11:00 +22°C° 0 mm 4 m/s 752 mmHg 48%
    12:00 +22°C° 0 mm 4 m/s 753 mmHg 45%
    13:00 +24°C° 0 mm 3 m/s 753 mmHg 42%
    14:00 +24°C° 0 mm 3 m/s 753 mmHg 42%
    15:00 +24°C° 0 mm 3 m/s 753 mmHg 43%
    16:00 +24°C° 0 mm 3 m/s 753 mmHg 44%
    17:00 +21°C° 0 mm 3 m/s 753 mmHg 50%
    18:00 +19°C° 0 mm 2 m/s 753 mmHg 57%
    19:00 +18°C° 0 mm 2 m/s 753 mmHg 64%
    20:00 +17°C° 0 mm 2 m/s 753 mmHg 68%
    21:00 +16°C° 0 mm 2 m/s 753 mmHg 73%
    22:00 +15°C° 0 mm 1 m/s 754 mmHg 78%
    23:00 +14°C° 0 mm 1 m/s 754 mmHg 80%

    22 Agosto, Quarta-feira

    Tempo Temperatura Precipitação Vento Pressão Humidade
    00:00 +14°C° 0 mm 1 m/s 754 mmHg 83%
    01:00 +14°C° 0 mm 2 m/s 754 mmHg 86%
    02:00 +13°C° 0 mm 2 m/s 754 mmHg 88%
    03:00 +13°C° 0 mm 2 m/s 754 mmHg 89%
    04:00 +13°C° 0 mm 2 m/s 754 mmHg 91%
    05:00 +14°C° 0 mm 2 m/s 754 mmHg 85%
    06:00 +15°C° 0 mm 2 m/s 754 mmHg 80%
    07:00 +16°C° 0 mm 3 m/s 754 mmHg 74%
    08:00 +18°C° 0 mm 3 m/s 754 mmHg 67%
    09:00 +20°C° 0 mm 3 m/s 754 mmHg 59%
    10:00 +22°C° 0 mm 3 m/s 754 mmHg 52%
    11:00 +24°C° 0 mm 3 m/s 754 mmHg 48%
    12:00 +25°C° 0 mm 3 m/s 753 mmHg 44%
    13:00 +26°C° 0 mm 3 m/s 753 mmHg 40%
    14:00 +27°C° 0 mm 3 m/s 753 mmHg 40%
    15:00 +27°C° 0 mm 3 m/s 752 mmHg 39%
    16:00 +27°C° 0 mm 3 m/s 752 mmHg 39%
    17:00 +25°C° 0 mm 2 m/s 751 mmHg 45%
    18:00 +24°C° 0 mm 2 m/s 751 mmHg 50%
    19:00 +21°C° 0 mm 2 m/s 751 mmHg 56%
    20:00 +20°C° 0 mm 2 m/s 751 mmHg 58%
    21:00 +19°C° 0 mm 2 m/s 751 mmHg 60%
    22:00 +19°C° 0 mm 3 m/s 750 mmHg 61%
    23:00 +19°C° 0 mm 3 m/s 750 mmHg 60%

    23 Agosto, Quinta-feira

    Tempo Temperatura Precipitação Vento Pressão Humidade
    00:00 +19°C° 0 mm 3 m/s 750 mmHg 59%
    01:00 +19°C° 0 mm 3 m/s 750 mmHg 58%
    02:00 +19°C° 0 mm 3 m/s 750 mmHg 58%
    03:00 +19°C° 0 mm 3 m/s 749 mmHg 58%
    04:00 +19°C° 0 mm 3 m/s 749 mmHg 58%
    05:00 +19°C° 0,1 mm 3 m/s 749 mmHg 61%
    06:00 +19°C° 0,1 mm 3 m/s 749 mmHg 64%
    07:00 +19°C° 0,1 mm 3 m/s 749 mmHg 67%
    08:00 +20°C° 0,1 mm 3 m/s 749 mmHg 67%
    09:00 +21°C° 0,1 mm 2 m/s 749 mmHg 66%
    10:00 +21°C° 0,1 mm 2 m/s 749 mmHg 66%
    11:00 +24°C° 0 mm 3 m/s 748 mmHg 60%
    12:00 +26°C° 0 mm 3 m/s 748 mmHg 55%
    13:00 +27°C° 0 mm 3 m/s 748 mmHg 50%
    14:00 +27°C° 0 mm 2 m/s 747 mmHg 50%
    15:00 +28°C° 0 mm 2 m/s 747 mmHg 50%
    16:00 +28°C° 0 mm 2 m/s 747 mmHg 51%
    17:00 +27°C° 0 mm 1 m/s 746 mmHg 55%
    18:00 +25°C° 0 mm 1 m/s 746 mmHg 59%
    19:00 +24°C° 0 mm 1 m/s 746 mmHg 63%
    20:00 +24°C° 0 mm 2 m/s 746 mmHg 64%
    21:00 +23°C° 0 mm 2 m/s 745 mmHg 65%
    22:00 +23°C° 0 mm 2 m/s 745 mmHg 67%
    23:00 +23°C° 0 mm 2 m/s 745 mmHg 65%

    24 Agosto, Sexta-feira

    Tempo Temperatura Precipitação Vento Pressão Humidade
    00:00 +22°C° 0 mm 3 m/s 745 mmHg 64%
    01:00 +22°C° 0 mm 3 m/s 744 mmHg 63%
    02:00 +21°C° 0 mm 3 m/s 744 mmHg 66%
    03:00 +20°C° 0 mm 3 m/s 743 mmHg 68%
    04:00 +20°C° 0 mm 2 m/s 743 mmHg 71%
    05:00 +20°C° 0,1 mm 2 m/s 743 mmHg 72%
    06:00 +21°C° 0,1 mm 2 m/s 743 mmHg 74%
    07:00 +21°C° 0,1 mm 3 m/s 742 mmHg 76%
    08:00 +24°C° 0,1 mm 3 m/s 742 mmHg 71%
    09:00 +26°C° 0,1 mm 3 m/s 742 mmHg 66%
    10:00 +27°C° 0,1 mm 3 m/s 742 mmHg 62%
    11:00 +28°C° 0,8 mm 3 m/s 742 mmHg 59%
    12:00 +29°C° 0,8 mm 3 m/s 742 mmHg 56%
    13:00 +30°C° 0,8 mm 3 m/s 741 mmHg 53%
    14:00 +30°C° 0,1 mm 3 m/s 741 mmHg 52%
    15:00 +30°C° 0,1 mm 3 m/s 741 mmHg 52%
    16:00 +30°C° 0,1 mm 3 m/s 741 mmHg 51%
    17:00 +28°C° 0,3 mm 3 m/s 741 mmHg 58%
    18:00 +26°C° 0,3 mm 2 m/s 741 mmHg 65%
    19:00 +24°C° 0,3 mm 2 m/s 741 mmHg 72%
    20:00 +22°C° 1 mm 3 m/s 741 mmHg 77%
    21:00 +21°C° 1 mm 3 m/s 741 mmHg 82%
    22:00 +20°C° 1 mm 4 m/s 741 mmHg 88%
    23:00 +19°C° 0,3 mm 3 m/s 742 mmHg 90%
    Mostrar mais